[[{"header":{"parameterUnit":"m.s-1","parameterCategory":1,"la1":30.2991,"la2":30.254,"lo1":-89.0895,"lo2":-89.0444,"dy":0.0017,"dx":0.0017,"nx":28,"ny":28,"refTime":"2025-04-30T03:00:00:Z","depth":0,"parameterNumber":2,"parameterNumberName":"U-component_of_WINDS"},"data":[0,0,0,0,0,0,0,0,0,0,0,0,0,0,0,0,0,0,0,0,0,0,0,0,0,0,0,0,0,0,0,0,0,0,0,0,0,0,0,0,0,0,0,0,0,0,0,0,0,0,0,0,0,0,0,0,0,0,-3.0193,-3.0193,0,-3.0267,-3.0268,-3.0268,-3.0266,-3.0265,-3.0264,-3.0263,-3.0337,-3.034,-3.0343,0,0,0,0,0,0,0,0,0,0,0,0,0,-3.0048,-3.0051,-3.0192,-3.0193,-3.0194,-3.0267,-3.0268,-3.0269,-3.0266,-3.0265,-3.0264,-3.0263,-3.0336,-3.0339,-3.0343,0,0,0,0,0,0,0,0,0,0,0,0,0,-3.0115,-3.0051,-3.0192,-3.0202,-3.0204,-3.0266,-3.0268,-3.0269,-3.0267,-3.0265,-3.0264,-3.0262,-3.0335,-3.0339,-3.0343,-3.0401,0,0,-3.0357,-3.0359,0,0,0,0,0,0,0,0,-3.0111,-3.0121,-3.02,-3.0201,-3.0203,-3.0256,-3.0244,-3.0313,-3.0267,-3.0243,-3.0263,-3.0261,-3.0311,-3.0317,-3.0334,-3.0404,-3.0407,-3.0357,-3.036,-3.0362,-3.0363,0,0,0,0,0,0,0,-3.0107,-3.0117,-3.0222,-3.0201,-3.0203,-3.0202,-3.021,-3.0257,-3.0284,-3.0245,-3.0245,-3.0254,-3.0312,-3.033,-3.0336,-3.0408,-3.0357,-3.0361,-3.0364,-3.0365,-3.053,-3.0531,0,0,0,0,0,0,-3.01,-3.0113,-3.0219,-3.0224,-3.0153,-3.0206,-3.0215,-3.024,-3.0284,-3.0289,-3.0255,-3.0253,-3.0323,-3.0331,-3.0339,-3.0409,-3.0362,-3.0366,-3.0368,-3.0528,-3.053,-3.0532,0,0,0,0,0,0,-3.0097,-3.011,-3.0216,-3.0169,-3.0182,-3.021,-3.0239,-3.0243,-3.0261,-3.0292,-3.0296,-3.0269,-3.0323,-3.0333,-3.0386,-3.0411,-3.0368,-3.0372,-3.0526,-3.0529,-3.0531,-3.0549,0,0,0,0,0,0,-3.0093,-3.0109,-3.0131,-3.0169,-3.0185,-3.0262,-3.024,-3.0245,-3.0269,-3.0267,-3.0306,-3.0311,-3.0322,-3.0379,-3.039,-3.0416,-3.0375,-3.0524,-3.0527,-3.053,-3.0546,-3.0552,-3.0557,0,0,0,0,0,-3.0088,-3.0132,-3.0132,-3.0145,-3.0213,-3.0264,-3.0273,-3.0286,-3.0271,-3.0293,-3.0313,-3.0309,-3.0407,-3.0385,-3.0397,-3.0425,-3.0522,-3.0526,-3.053,-3.0544,-3.0551,-3.0557,0,0,0,0,0,0,-3.0095,-3.0137,-3.0137,-3.0196,-3.0226,-3.0263,-3.0292,-3.0292,-3.0327,-3.0324,-3.0338,-3.0347,-3.04,-3.0418,-3.0392,-3.0483,-3.0463,-3.0469,-3.0469,-3.0476,-3.0481,-3.0475,-3.0379,0,0,0,0,0,-3.0103,-3.0141,-3.0176,-3.0224,-3.024,-3.0263,-3.0286,-3.0293,-3.0325,-3.0338,-3.0362,-3.0392,-3.043,-3.0454,-3.049,-3.055,-3.0558,-3.0575,-3.058,-3.0585,-3.0589,-3.0622,-3.063,-3.0545,-3.0545,-3.0545,0,0,-3.0121,-3.0149,-3.0172,-3.0227,-3.0251,-3.029,-3.0274,-3.0315,-3.0344,-3.0344,-3.0396,-3.0414,-3.045,-3.0506,-3.0532,-3.0522,-3.0615,-3.059,-3.0593,-3.0595,-3.0627,-3.0635,-3.0642,-3.0548,-3.0547,-3.0547,0,0,-3.0172,-3.0197,-3.024,-3.0266,-3.0304,-3.0319,-3.033,-3.0367,-3.038,-3.0432,-3.0433,-3.0468,-3.0532,-3.0557,-3.0579,-3.0642,-3.064,-3.0653,-3.068,-3.0712,-3.0719,-3.0725,-3.0747,-3.0754,-3.0659,-3.0659,-3.0659,0,-3.0189,-3.0247,-3.0262,-3.0304,-3.0328,-3.0332,-3.0375,-3.0399,-3.0446,-3.0463,-3.0452,-3.0534,-3.0558,-3.062,-3.0636,-3.0653,-3.0665,-3.0648,-3.0717,-3.0723,-3.0729,-3.075,-3.0758,-3.066,-3.066,-3.066,-3.066,0,-3.0266,-3.0307,-3.0337,-3.0384,-3.0411,-3.0454,-3.0475,-3.0501,-3.0507,-3.0524,-3.0577,-3.0607,-3.0649,-3.0665,-3.0671,-3.0729,-3.0722,-3.0714,-3.0693,-3.0738,-3.0758,-3.0766,-3.0662,-3.0661,-3.0661,-3.0661,0,0,-3.0321,-3.0377,-3.0388,-3.041,-3.0453,-3.0484,-3.0527,-3.057,-3.0592,-3.0625,-3.0661,-3.0717,-3.0711,-3.0735,-3.0743,-3.0772,-3.0819,-3.076,-3.0761,-3.0769,-3.0885,-3.0889,-3.0899,-3.0819,-3.0821,-3.0822,-3.0882,0,-3.0377,-3.0453,-3.0469,-3.0535,-3.0573,-3.0578,-3.0615,-3.0645,-3.0663,-3.0697,-3.0716,-3.0755,-3.0744,-3.0759,-3.0787,-3.0808,-3.0843,-3.0804,-3.0852,-3.0853,-3.0841,-3.0909,-3.0914,-3.0969,-3.089,-3.0891,-3.0892,0,-3.0451,-3.0487,-3.0557,-3.0596,-3.0613,-3.0646,-3.0687,-3.072,-3.0755,-3.0765,-3.0794,-3.08,-3.0844,-3.0823,-3.0885,-3.0858,-3.0879,-3.0893,-3.0895,-3.0899,-3.0874,-3.0914,-3.0986,-3.0994,-3.0904,-3.0903,-3.0903,0,-3.0484,-3.055,-3.0601,-3.0619,-3.0666,-3.0689,-3.071,-3.0743,-3.0768,-3.0804,-3.082,-3.086,-3.0882,-3.0913,-3.093,-3.0913,-3.099,-3.097,-3.0999,-3.0999,-3.1014,-3.1013,-3.109,-3.103,-3.103,-3.103,-3.1029,0,-3.0543,-3.0586,-3.0616,-3.0647,-3.0695,-3.0713,-3.076,-3.078,-3.081,-3.0845,-3.0852,-3.0884,-3.0905,-3.0941,-3.0954,-3.1003,-3.1013,-3.1023,-3.1025,-3.1021,-3.102,-3.1034,-3.103,-3.1032,-3.1031,-3.1031,-3.103,0,-3.0587,-3.0609,-3.0665,-3.0705,-3.0716,-3.075,-3.0784,-3.0815,-3.0833,-3.0877,-3.0888,-3.0917,-3.0959,-3.0979,-3.1032,-3.1041,-3.1096,-3.1097,-3.1084,-3.1085,-3.1113,-3.1109,-3.1201,-3.1213,-3.1146,-3.1146,-3.1147,0,-3.0623,-3.0656,-3.07,-3.0724,-3.0746,-3.0785,-3.0811,-3.083,-3.0856,-3.0899,-3.0924,-3.0967,-3.1002,-3.107,-3.1095,-3.1135,-3.1136,-3.1165,-3.1142,-3.1137,-3.1135,-3.1133,-3.1136,-3.1169,-3.117,-3.117,-3.1171,0,-3.0684,-3.0694,-3.0731,-3.0772,-3.0803,-3.0837,-3.087,-3.0889,-3.0913,-3.0943,-3.0987,-3.1014,-3.1068,-3.1111,-3.1153,-3.1174,-3.1176,-3.1178,-3.1187,-3.1182,-3.1173,-3.1178,-3.1094,-3.1175,-3.1175,-3.1175,-3.1174,-3.1174,-3.0725,-3.0754,-3.079,-3.0832,-3.0859,-3.089,-3.092,-3.0943,-3.098,-3.1026,-3.1035,-3.1081,-3.1116,-3.1173,-3.1196,-3.1232,-3.1225,-3.1238,-3.1241,-3.1244,-3.1245,-3.1169,-3.124,-3.124,-3.124,-3.124,-3.124,0,-3.0785,-3.0809,-3.0847,-3.0893,-3.0926,-3.0927,-3.0964,-3.0991,-3.1032,-3.1064,-3.1099,-3.115,-3.1191,-3.122,-3.1262,-3.1286,-3.1288,-3.1296,-3.1294,-3.1299,-3.1249,-3.1237,-3.1294,-3.1294,-3.1294,-3.1294,-3.1294,-3.1294,-3.0821,-3.0871,-3.0885,-3.0949,-3.0973,-3.1019,-3.104,-3.1068,-3.1094,-3.1151,-3.1185,-3.1204,-3.1236,-3.128,-3.1318,-3.1326,-3.1341,-3.1349,-3.1356,-3.1308,-3.1302,-3.1297,-3.1285,-3.1352,-3.1352,-3.1403,-3.1403,-3.1404]},{"header":{"parameterUnit":"m.s-1","parameterCategory":1,"la1":30.2991,"la2":30.254,"lo1":-89.0895,"lo2":-89.0444,"dy":0.0017,"dx":0.0017,"nx":28,"ny":28,"refTime":"2025-04-30T03:00:00:Z","depth":0,"parameterNumber":3,"parameterNumberName":"V-component_of_WINDS"},"data":[0,0,0,0,0,0,0,0,0,0,0,0,0,0,0,0,0,0,0,0,0,0,0,0,0,0,0,0,0,0,0,0,0,0,0,0,0,0,0,0,0,0,0,0,0,0,0,0,0,0,0,0,0,0,0,0,0,0,5.2527,5.2528,0,5.26,5.26,5.2601,5.2556,5.2554,5.2552,5.255,5.2619,5.2623,5.2626,0,0,0,0,0,0,0,0,0,0,0,0,0,5.2345,5.2349,5.2527,5.2528,5.2529,5.2599,5.26,5.2601,5.2556,5.2554,5.2551,5.2549,5.2618,5.2622,5.2627,0,0,0,0,0,0,0,0,0,0,0,0,0,5.2422,5.235,5.2527,5.2515,5.2515,5.2599,5.2601,5.2602,5.2557,5.2554,5.2551,5.2548,5.2616,5.2622,5.2627,5.2726,0,0,5.2645,5.2647,0,0,0,0,0,0,0,0,5.2417,5.2428,5.2516,5.2516,5.2516,5.2566,5.2562,5.2643,5.2558,5.2541,5.255,5.2546,5.2603,5.261,5.263,5.2729,5.2732,5.2645,5.2649,5.2651,5.2653,0,0,0,0,0,0,0,5.2412,5.2425,5.2556,5.2517,5.2517,5.2505,5.2512,5.2577,5.2589,5.2542,5.2539,5.2548,5.2603,5.2625,5.2632,5.2733,5.2645,5.265,5.2654,5.2656,5.2917,5.292,0,0,0,0,0,0,5.2408,5.2421,5.2553,5.2558,5.2458,5.2511,5.2519,5.2553,5.2588,5.259,5.2551,5.2546,5.2617,5.2625,5.2634,5.2752,5.2651,5.2656,5.266,5.2914,5.2918,5.2922,0,0,0,0,0,0,5.2405,5.2421,5.255,5.2489,5.2504,5.2517,5.2556,5.2556,5.2578,5.2595,5.2596,5.2572,5.2615,5.2626,5.2704,5.2754,5.2659,5.2664,5.291,5.2915,5.292,5.2989,0,0,0,0,0,0,5.24,5.242,5.2458,5.249,5.2508,5.2621,5.2559,5.256,5.2589,5.2583,5.2615,5.2617,5.2613,5.2696,5.271,5.276,5.2669,5.2905,5.2912,5.2918,5.2982,5.2996,5.3008,0,0,0,0,0,5.2393,5.2473,5.246,5.2477,5.2556,5.2624,5.2634,5.2629,5.2593,5.2631,5.2642,5.2616,5.2746,5.2704,5.2719,5.2772,5.2902,5.291,5.2918,5.2976,5.2993,5.3007,0,0,0,0,0,0,5.2445,5.2477,5.2463,5.2556,5.2588,5.2616,5.2664,5.2646,5.2687,5.268,5.2671,5.2678,5.276,5.2774,5.2726,5.287,5.2818,5.283,5.2858,5.2874,5.2886,5.2881,5.2673,0,0,0,0,0,5.2468,5.2521,5.2546,5.2625,5.2642,5.2651,5.268,5.2674,5.2705,5.2718,5.2734,5.2765,5.2812,5.2844,5.2889,5.2984,5.299,5.3028,5.3041,5.3051,5.3061,5.3113,5.313,5.2948,5.2948,5.2947,0,0,5.2514,5.2538,5.2572,5.2636,5.266,5.2714,5.2662,5.2721,5.2761,5.2726,5.2801,5.2815,5.2848,5.2936,5.2975,5.2949,5.3113,5.3061,5.3069,5.3073,5.3122,5.314,5.3155,5.2953,5.2952,5.2951,0,0,5.2626,5.265,5.272,5.2745,5.2783,5.2788,5.2805,5.2836,5.2844,5.292,5.2895,5.2942,5.3025,5.305,5.3073,5.3197,5.3174,5.3212,5.3277,5.3328,5.3342,5.3355,5.3399,5.3415,5.3221,5.3222,5.3222,0,5.2678,5.2761,5.2757,5.2819,5.2848,5.2821,5.289,5.2915,5.2964,5.2984,5.2956,5.306,5.308,5.3173,5.3204,5.3224,5.3242,5.3207,5.3341,5.3354,5.3365,5.3407,5.3424,5.3226,5.3225,5.3225,5.3224,0,5.2823,5.2881,5.2932,5.2983,5.3018,5.3083,5.3088,5.3123,5.3115,5.3123,5.32,5.3224,5.3274,5.3296,5.3287,5.3388,5.3371,5.3342,5.329,5.3387,5.3426,5.3442,5.3232,5.323,5.3229,5.3228,0,0,5.2968,5.3018,5.3037,5.306,5.31,5.3144,5.3208,5.3259,5.3289,5.3324,5.3377,5.3449,5.3423,5.345,5.3443,5.3488,5.3585,5.3453,5.3454,5.3477,5.3697,5.3719,5.3737,5.3571,5.3574,5.3576,5.3695,0,5.3083,5.3197,5.3196,5.33,5.3353,5.333,5.3385,5.3416,5.3425,5.3471,5.348,5.3531,5.3493,5.3509,5.3552,5.3564,5.3629,5.3555,5.3618,5.3621,5.361,5.3758,5.378,5.3891,5.371,5.3712,5.3714,0,5.3231,5.3274,5.3385,5.3419,5.3441,5.3491,5.3538,5.3582,5.3615,5.3619,5.3651,5.3638,5.3702,5.3649,5.3737,5.3687,5.3713,5.3723,5.3727,5.3732,5.3673,5.3766,5.3926,5.3942,5.3738,5.3736,5.3735,0,5.3326,5.3411,5.3488,5.3509,5.355,5.3586,5.3605,5.3635,5.3666,5.3707,5.3726,5.3773,5.3799,5.3835,5.3835,5.3796,5.3924,5.3871,5.3928,5.3928,5.3954,5.3953,5.412,5.3973,5.3972,5.3972,5.3972,0,5.3453,5.3522,5.3532,5.3579,5.3655,5.3653,5.3728,5.3743,5.3771,5.382,5.3802,5.3848,5.3846,5.3892,5.3893,5.3965,5.3977,5.3981,5.398,5.3982,5.3982,5.3998,5.399,5.3976,5.3975,5.3975,5.3974,0,5.3571,5.3581,5.3664,5.3697,5.3707,5.3761,5.3789,5.3834,5.3842,5.3905,5.3919,5.3933,5.3987,5.3991,5.4053,5.4053,5.4141,5.4132,5.4131,5.4129,5.4185,5.418,5.4369,5.4393,5.423,5.4232,5.4233,0,5.3652,5.3704,5.3744,5.3777,5.3798,5.385,5.3882,5.3882,5.3916,5.396,5.3999,5.4052,5.4094,5.4181,5.4196,5.4243,5.4235,5.4298,5.4241,5.4242,5.4235,5.4232,5.4237,5.4308,5.431,5.4311,5.4313,0,5.3793,5.3796,5.3844,5.3894,5.3933,5.3972,5.4008,5.4036,5.404,5.4079,5.4135,5.4168,5.4233,5.4285,5.4332,5.4349,5.4332,5.4331,5.4346,5.4349,5.4345,5.4348,5.416,5.4326,5.4325,5.4324,5.4323,5.4322,5.3895,5.3941,5.3976,5.403,5.4058,5.4093,5.4137,5.4152,5.42,5.4254,5.4251,5.4313,5.4345,5.4407,5.4428,5.4476,5.4454,5.4477,5.4483,5.4488,5.4494,5.4339,5.4484,5.4484,5.4484,5.4483,5.4483,0,5.4035,5.4058,5.4108,5.416,5.4203,5.4185,5.4224,5.426,5.4316,5.4349,5.4392,5.4456,5.4508,5.4527,5.4576,5.4611,5.4604,5.4624,5.4621,5.4625,5.451,5.4492,5.4629,5.4629,5.4629,5.4629,5.4629,5.4629,5.4113,5.4191,5.4198,5.4288,5.4309,5.4372,5.4396,5.4427,5.4454,5.4528,5.4571,5.4584,5.4611,5.4663,5.4709,5.4713,5.4732,5.4755,5.4756,5.4648,5.4633,5.4619,5.4602,5.4759,5.476,5.4867,5.4868,5.4868]}]]